Torna al catalogo

COSMOS 1375 DEB

AttivoLEO
NORAD 16207·DEBRIS·🇷🇺 Russia

Lanciato Jun 6, 1982 da Plesetsk Cosmodrome

Loading…

Prossimi Passaggi (prossime 24 ore)

TLE

AggiornatoSource: Space-Track

Epoca: Sep 13, 2026, 22:33 UTC

1 16207U 82055J   26256.93973778 -.00000087  00000-0 -13488-4 0  9995
2 16207  65.8343 181.1083 0076606 156.0655 273.8543 13.57720955 27018

Traccia COSMOS 1375 DEB in tempo reale con AllMySat

Download on the App Store